Simultaneous Nadir Overpasses (SNOs) Predictions

Prediction of SNOs between METOP-A and TERRA Satellite Orbit:

Table of predicted SNOs for the next 14.0 days since TLE Epoch: 10/2/2021
Index Date (METOP-A) Time (METOP-A) Lat,Lon (METOP-A) SZA (METOP-A ) Date (TERRA) Time (TERRA) Lat,Lon (TERRA) SZA (TERRA ) Distance(km) Time Diff (sec)
1 10/03/2021 15:52:32 81.26, -13.53 88.26 10/03/2021 15:52:38 81.26, -13.53 88.26 0.84 6
2 10/03/2021 16:43:12 -81.25, 154.09 91.71 10/03/2021 16:42:05 -81.25, 154.02 91.75 1.18 67
3 10/06/2021 10:36:11 -81.26,-114.43 90.66 10/06/2021 10:37:23 -81.27,-114.51 90.63 1.78 72
4 10/06/2021 11:26:52 81.26, 52.78 89.35 10/06/2021 11:26:50 81.25, 52.80 89.34 1.67 2
5 10/06/2021 12:17:26 -81.15,-137.34 90.43 10/06/2021 12:16:14 -81.31,-138.49 90.49 26.52 72
6 10/09/2021 06:10:31 -81.26, -48.12 89.58 10/09/2021 06:11:35 -81.26, -48.20 89.56 1.38 64
7 10/09/2021 07:01:11 81.25, 119.45 90.46 10/09/2021 07:01:01 81.26, 119.46 90.46 1.35 10
8 10/12/2021 01:44:50 -81.26, 18.16 88.52 10/12/2021 01:45:46 -81.25, 18.06 88.51 2.29 56
9 10/12/2021 02:35:30 81.25,-174.28 91.52 10/12/2021 02:35:12 81.25,-174.30 91.50 0.58 18
10 10/14/2021 21:19:09 -81.25, 84.80 87.44 10/14/2021 21:19:57 -81.26, 84.63 87.43 2.89 48



Historial Predications of SNOs between METOP-A and TERRA
